UCLSAT (42765 NORAD) Tracking and Keplerian Element Data

This shows tracking and keplerian element data for the satellite.

Feedback or suggestion? Click here.




ElementValue
Catalog42765
NameUCLSAT
Epoch Orbit10689
Epoch Day146.20841518
Epoch Year2019
RAAN204.7184
Inclination97.3527
Eccentricity0.001021
Argument of Perigee319.1948
Mean Anonmoly40.8523
Mean Motion15.22687776
Decay Rate7.32E-06
L11 42765U 17036A 19146.20841518 .00000732 00000-0 34390-4 0 9996
L22 42765 97.3527 204.7184 0010210 319.1948 40.8523 15.22687776106891

Live tracking and technical data element details for UCLSAT (NORAD 42765). UCLSAT can be tracked NOW for your location showing map with azimuth and elevation plus other details from your city location.

Track the satellite on the map from your city or location and see movement details for azimuth, elevation, latitude, longitude, range, height, and movement on the map or in text.







IsCatalogInMostPopularTable: catalog: 42765, numindb: 220
Update: records affected: 1



GetName: 42765 UCLSAT

Hit Count: updated at: Mon, 27 May 2019 03:18:18 GMT